Starlink 2566

operational
NORAD ID: 48287 Int'l Des: 2021-036 Owner: SPXS Country: US Constellation: starlink
LEOCIRCULARSTARLINK_TYPE

Über Starlink 2566

Beschreibung wird geladen...

Live-Position

3D-Globus wird geladen...

Nächste Überflüge

Höhenverlauf

Altitude vs Time

uPlot chart will show altitude changes over time

Zweizeiliger Elementsatz

1 48287U 21036M 25306.26407983 .00010681 00000-0 73586-3 0 9994
2 48287 53.0545 293.6566 0002031 92.5248 267.5973 15.06348393249103
Epoch: 2. Nov. 2025 • Age: 35 hours

Aktueller Status

Höhe 547.3 km
Geschwindigkeit 7.59 km/s
Subsatellitenpunkt 21.16°N, 1.63°W
Startdatum 29. Apr. 2021
Alter 4.5 years
Typ internet

Technische Details

Klassifizierung Payload
Masse 260.00 kg
Trockenmasse 248.00 kg
Gesamtmasse 260.00 kg
Länge 0.20 m
Durchmesser 2.80 m
Spannweite 9.00 m
Form Box + pan
Hersteller SPXS
Bus-Typ Starlink
Phasenstatus In Orbit
Besitzer/Staat SPXS/US

Große Konstellationen

Loading constellations...